New Haven, CT

1:52 AM EDT on March 30, 2017 (GMT -0400)
Tweed-New Haven

Weather History for KHVN - January, 2013

Change the Weather History Date:

Thursday, January 31, 2013

  Actual Average Record
Temperature  
Mean Temperature 45 °F -  
Max Temperature 57 °F 36 °F 59 °F (1988)
Min Temperature 32 °F 22 °F 5 °F (1971)
Degree Days  
Heating Degree Days 20    
Moisture  
Dew Point 35 °F    
Average Humidity 64    
Maximum Humidity 94    
Minimum Humidity 31    
Precipitation  
Precipitation 0.14 in - - ()
Sea Level Pressure  
Sea Level Pressure 29.33 in    
Wind  
Wind Speed 21 mph (SW)    
Max Wind Speed 38 mph    
Max Gust Speed 53 mph    
Visibility 8 miles    
Events Rain    
Averages and records for this station are not official NWS values.
T = Trace of Precipitation, MM = Missing Value Source: NWS Daily Summary

Daily Weather History Graph

Daily Weather History Graph

Search for Another Location

Airport or City:

Trip Planner

Search our weather history database for the weather conditions in past years. The results will help you decide how hot, cold, wet, or windy it might be!

Date:

Astronomy

Jan. 31, 2013 Rise Set
Actual Time 7:03 AM EST 5:07 PM EST
Civil Twilight 6:34 AM EST 5:36 PM EST
Nautical Twilight 6:01 AM EST 6:09 PM EST
Astronomical Twilight 5:28 AM EST 6:41 PM EST
Moon 10:10 PM EST (1/31) 8:58 AM EST (1/31)
Length of Visible Light 11h 02m
Length of Day
10h 03m
Waning Gibbous, 80% of the Moon is Illuminated
Jan 31
Waning Gibbous
Feb 3
Last Quarter
Feb 10
New
Feb 17
First Quarter
Feb 25
Full

Hourly Weather History & Observations

Time (EST) Temp. Windchill Dew Point Humidity Pressure Visibility Wind Dir Wind Speed Gust Speed Precip Events Conditions
12:53 AM 55.0 °F - 51.1 °F 86% 29.38 in 6.0 mi SSW 18.4 mph 27.6 mph 0.00 in Rain Light Rain
1:51 AM 57.2 °F - 53.6 °F 88% 29.32 in 6.0 mi SSW 26.5 mph 40.3 mph 0.00 in Rain Light Rain
1:53 AM 57.0 °F - 53.1 °F 87% 29.32 in 6.0 mi SSW 24.2 mph 40.3 mph 0.00 in Rain Light Rain
2:53 AM 57.9 °F - 53.1 °F 84% 29.24 in 7.0 mi South 28.8 mph 42.6 mph 0.00 in Rain Light Rain
3:53 AM 57.9 °F - 54.0 °F 87% 29.15 in 7.0 mi South 29.9 mph 47.2 mph 0.00 in Rain Light Rain
4:36 AM 57.2 °F - 53.6 °F 88% 29.09 in 1.8 mi South 38.0 mph 52.9 mph 0.07 in Rain Heavy Rain
4:50 AM 57.2 °F - 53.6 °F 88% 29.08 in 2.0 mi South 35.7 mph 51.8 mph 0.11 in Rain Heavy Rain
4:53 AM 57.0 °F - 54.0 °F 89% 29.09 in 1.8 mi South 29.9 mph 51.8 mph 0.13 in Rain Heavy Rain
5:01 AM 57.2 °F - 53.6 °F 88% 29.10 in 3.0 mi SSW 26.5 mph 43.7 mph 0.01 in Rain Light Rain
5:39 AM 53.6 °F - 50.0 °F 88% 29.14 in 5.0 mi SSW 20.7 mph 33.4 mph 0.06 in Rain Rain
5:53 AM 53.6 °F - 51.8 °F 94% 29.12 in 5.0 mi SSW 15.0 mph 27.6 mph N/A Rain Rain
6:53 AM 51.1 °F - 48.0 °F 89% 29.07 in 9.0 mi South 15.0 mph 23.0 mph 0.01 in   Overcast
7:50 AM 51.8 °F - 48.2 °F 88% 29.07 in 10.0 mi SW 19.6 mph 32.2 mph N/A   Mostly Cloudy
7:53 AM 52.0 °F - 48.0 °F 86% 29.07 in 10.0 mi SW 19.6 mph 35.7 mph N/A   Mostly Cloudy
8:53 AM 51.1 °F - 37.9 °F 61% 29.15 in 10.0 mi WSW 15.0 mph 20.7 mph 0.00 in   Overcast
9:53 AM 48.9 °F - 35.1 °F 59% 29.23 in 10.0 mi West 17.3 mph 26.5 mph N/A   Mostly Cloudy
10:53 AM 48.0 °F - 28.9 °F 48% 29.30 in 10.0 mi West 20.7 mph 32.2 mph N/A   Mostly Cloudy
11:53 AM 46.9 °F - 25.0 °F 42% 29.32 in 10.0 mi WNW 16.1 mph 34.5 mph N/A   Mostly Cloudy
12:53 PM 46.9 °F - 26.1 °F 44% 29.34 in 10.0 mi West 10.4 mph 32.2 mph N/A   Mostly Cloudy
1:53 PM 46.0 °F 39.0 °F 18.0 °F 33% 29.38 in 10.0 mi West 17.3 mph 36.8 mph N/A   Scattered Clouds
2:53 PM 46.0 °F 40.2 °F 21.9 °F 39% 29.41 in 10.0 mi West 12.7 mph 18.4 mph N/A   Scattered Clouds
3:53 PM 46.0 °F 39.6 °F 17.1 °F 31% 29.44 in 10.0 mi West 15.0 mph 31.1 mph N/A   Mostly Cloudy
4:53 PM 43.0 °F 34.8 °F 17.1 °F 35% 29.49 in 10.0 mi WSW 18.4 mph 29.9 mph N/A   Scattered Clouds
5:53 PM 39.9 °F 32.1 °F 18.0 °F 41% 29.55 in 10.0 mi WSW 13.8 mph 27.6 mph N/A   Scattered Clouds
6:53 PM 39.0 °F 30.3 °F 15.1 °F 38% 29.60 in 10.0 mi West 16.1 mph 28.8 mph N/A   Partly Cloudy
7:53 PM 37.0 °F 27.7 °F 15.1 °F 41% 29.64 in 10.0 mi WSW 16.1 mph 34.5 mph N/A   Scattered Clouds
8:53 PM 36.0 °F 28.0 °F 14.0 °F 41% 29.67 in 10.0 mi WSW 11.5 mph 21.9 mph N/A   Partly Cloudy
9:53 PM 35.1 °F 24.5 °F 15.1 °F 44% 29.68 in 10.0 mi WSW 18.4 mph 29.9 mph N/A   Clear
10:53 PM 33.1 °F 23.9 °F 17.1 °F 52% 29.70 in 10.0 mi WSW 12.7 mph 26.5 mph N/A   Clear
11:53 PM 32.0 °F 22.5 °F 14.0 °F 48% 29.72 in 10.0 mi WSW 12.7 mph 25.3 mph N/A   Clear